Location: Bronschhofen
(47.4788°N, 9.0353°E)
Time: 21:23:51
(UTC+00:00)

Cosmos 2151 Rocket - Pass Details

Date: 20 May 2022
Orbit: 617 x 641 km, 82.5° (Epoch: 01 July)

Event Time Altitude Azimuth Distance (km) Brightness Sun altitude
Rises 00:08:25 0° 352° (N) 2,905 8.2 -21.7°
Reaches altitude 10° 00:10:40 10° 354° (N) 1,994 7.2 -21.6°
Maximum altitude 00:15:04 72° 79° (E) 654 3.6 -21.5°
Enters shadow 00:16:04 51° 145° (SE) 778 3.7 -21.4°
